Time,TemperatureF,DewpointF,PressureIn,WindDirection,WindDirectionDegrees,WindSpeedMPH,WindSpeedGustMPH,Humidity,HourlyPrecipIn,Conditions,Clouds,dailyrainin,SoftwareType,DateUTC
2013-03-17 00:02:00,2.0,-2.0,-100.00,NW,320,7.0,9.0,87,0.00,,,0.00,,2013-03-17 05:02:00,
2013-03-17 00:12:00,2.0,0.0,-100.00,NW,325,7.0,9.0,87,0.00,,,0.00,,2013-03-17 05:12:00,
2013-03-17 00:22:00,2.0,0.0,-100.00,NNW,330,7.0,9.0,87,0.00,,,0.00,,2013-03-17 05:22:00,
2013-03-17 00:32:00,2.0,0.0,-100.00,NNW,335,7.0,9.0,87,0.00,,,0.00,,2013-03-17 05:32:00,
2013-03-17 00:42:00,2.0,0.0,-100.00,NNW,335,8.0,10.0,87,0.00,,,0.00,,2013-03-17 05:42:00,
2013-03-17 00:52:00,2.0,-2.0,-100.00,NNW,335,7.0,10.0,87,0.00,,,0.00,,2013-03-17 05:52:00,
2013-03-17 01:02:00,2.0,-2.0,-100.00,NNW,340,7.0,9.0,87,0.00,,,0.00,,2013-03-17 06:02:00,
2013-03-17 01:12:00,2.0,-2.0,-100.00,NNW,345,7.0,9.0,87,0.00,,,0.00,,2013-03-17 06:12:00,
2013-03-17 01:22:00,2.0,-2.0,-100.00,North,350,6.0,8.0,87,0.00,,,0.00,,2013-03-17 06:22:00,
2013-03-17 01:32:00,2.0,-2.0,-100.00,NNW,345,4.0,7.0,87,0.00,,,0.00,,2013-03-17 06:32:00,
2013-03-17 01:42:00,1.0,-2.0,-100.00,North,0,4.0,6.0,87,0.00,,,0.00,,2013-03-17 06:42:00,
2013-03-17 01:52:00,1.0,-2.0,-100.00,North,355,6.0,7.0,87,0.00,,,0.00,,2013-03-17 06:52:00,
2013-03-17 02:02:00,1.0,-2.0,-100.00,North,355,4.0,6.0,87,0.00,,,0.00,,2013-03-17 07:02:00,
2013-03-17 02:12:00,1.0,-2.0,-100.00,North,0,5.0,6.0,87,0.00,,,0.00,,2013-03-17 07:12:00,
2013-03-17 02:22:00,0.0,-2.0,-100.00,NNE,15,4.0,7.0,87,0.00,,,0.00,,2013-03-17 07:22:00,
2013-03-17 02:32:00,0.0,-2.0,-100.00,NNE,15,4.0,7.0,87,0.00,,,0.00,,2013-03-17 07:32:00,
2013-03-17 02:42:00,0.0,-2.0,-100.00,North,5,6.0,7.0,88,0.00,,,0.00,,2013-03-17 07:42:00,
2013-03-17 02:52:00,0.0,-2.0,-100.00,NNE,25,3.0,7.0,88,0.00,,,0.00,,2013-03-17 07:52:00,
2013-03-17 03:02:00,0.0,-2.0,-100.00,NE,45,2.0,5.0,88,0.00,,,0.00,,2013-03-17 08:02:00,
2013-03-17 03:12:00,0.0,-2.0,-100.00,NNE,30,7.0,7.0,88,0.00,,,0.00,,2013-03-17 08:12:00,
2013-03-17 03:22:00,0.0,-2.0,-100.00,NE,40,6.0,8.0,88,0.00,,,0.00,,2013-03-17 08:22:00,
2013-03-17 03:32:00,1.0,-2.0,-100.00,NE,40,7.0,9.0,88,0.00,,,0.00,,2013-03-17 08:32:00,
2013-03-17 03:42:00,1.0,-2.0,-100.00,NE,45,6.0,10.0,88,0.00,,,0.00,,2013-03-17 08:42:00,
2013-03-17 03:52:00,1.0,-2.0,-100.00,NE,35,6.0,7.0,88,0.00,,,0.00,,2013-03-17 08:52:00,
2013-03-17 04:02:00,0.0,-2.0,-100.00,NE,35,6.0,7.0,88,0.00,,,0.00,,2013-03-17 09:02:00,
2013-03-17 04:12:00,0.0,-2.0,-100.00,NE,45,6.0,7.0,88,0.00,,,0.00,,2013-03-17 09:12:00,
2013-03-17 04:22:00,0.0,-2.0,-100.00,NE,50,4.0,7.0,88,0.00,,,0.00,,2013-03-17 09:22:00,
2013-03-17 04:32:00,-1.0,-4.0,-100.00,NE,50,5.0,6.0,88,0.00,,,0.00,,2013-03-17 09:32:00,
2013-03-17 04:42:00,-1.0,-4.0,-100.00,NE,55,4.0,6.0,88,0.00,,,0.00,,2013-03-17 09:42:00,
2013-03-17 04:53:00,-2.0,-4.0,-100.00,NE,50,3.0,4.0,88,0.00,,,0.00,,2013-03-17 09:53:00,
2013-03-17 05:03:00,-1.0,-4.0,-100.00,NE,40,4.0,6.0,88,0.00,,,0.00,,2013-03-17 10:03:00,
2013-03-17 05:13:00,-1.0,-4.0,-100.00,NE,50,4.0,4.0,88,0.00,,,0.00,,2013-03-17 10:13:00,
2013-03-17 05:23:00,-2.0,-4.0,-100.00,NE,40,4.0,4.0,88,0.00,,,0.00,,2013-03-17 10:23:00,
2013-03-17 05:33:00,-2.0,-4.0,-100.00,NE,45,5.0,6.0,89,0.00,,,0.00,,2013-03-17 10:33:00,
2013-03-17 05:42:00,-2.0,-4.0,-100.00,NE,35,6.0,7.0,89,0.00,,,0.00,,2013-03-17 10:42:00,
2013-03-17 05:52:00,-2.0,-4.0,-100.00,NE,35,6.0,6.0,89,0.00,,,0.00,,2013-03-17 10:52:00,
2013-03-17 06:02:00,-3.0,-6.0,-100.00,NE,45,6.0,7.0,89,0.00,,,0.00,,2013-03-17 11:02:00,
2013-03-17 06:12:00,-3.0,-6.0,-100.00,NE,50,5.0,7.0,90,0.00,,,0.00,,2013-03-17 11:12:00,
2013-03-17 06:22:00,-3.0,-6.0,-100.00,ENE,60,5.0,6.0,90,0.00,,,0.00,,2013-03-17 11:22:00,
2013-03-17 06:32:00,-4.0,-6.0,-100.00,ENE,70,6.0,7.0,90,0.00,,,0.00,,2013-03-17 11:32:00,
2013-03-17 06:42:00,-3.0,-6.0,-100.00,ENE,70,5.0,6.0,90,0.00,,,0.00,,2013-03-17 11:42:00,
2013-03-17 06:52:00,-3.0,-6.0,-100.00,ENE,70,6.0,6.0,91,0.00,,,0.00,,2013-03-17 11:52:00,
2013-03-17 07:02:00,-3.0,-4.0,-100.00,ENE,75,6.0,7.0,91,0.00,,,0.00,,2013-03-17 12:02:00,
2013-03-17 07:12:00,-2.0,-4.0,-100.00,ENE,75,7.0,8.0,91,0.00,,,0.00,,2013-03-17 12:12:00,
2013-03-17 07:22:00,-1.0,-4.0,-100.00,ENE,75,7.0,9.0,91,0.00,,,0.00,,2013-03-17 12:22:00,
2013-03-17 07:32:00,-1.0,-4.0,-100.00,East,80,7.0,9.0,91,0.00,,,0.00,,2013-03-17 12:32:00,
2013-03-17 07:42:00,-1.0,-2.0,-100.00,East,85,9.0,12.0,90,0.00,,,0.00,,2013-03-17 12:42:00,
2013-03-17 07:52:00,0.0,-2.0,-100.00,East,85,9.0,12.0,90,0.00,,,0.00,,2013-03-17 12:52:00,
2013-03-17 08:02:00,1.0,-2.0,-100.00,East,85,7.0,12.0,89,0.00,,,0.00,,2013-03-17 13:02:00,
2013-03-17 08:12:00,1.0,-2.0,-100.00,East,85,8.0,11.0,88,0.00,,,0.00,,2013-03-17 13:12:00,
2013-03-17 08:22:00,1.0,-2.0,-100.00,East,85,8.0,12.0,88,0.00,,,0.00,,2013-03-17 13:22:00,
2013-03-17 08:32:00,1.0,-2.0,-100.00,East,90,9.0,11.0,87,0.00,,,0.00,,2013-03-17 13:32:00,
2013-03-17 08:42:00,2.0,-2.0,-100.00,East,90,7.0,11.0,87,0.00,,,0.00,,2013-03-17 13:42:00,
2013-03-17 08:52:00,2.0,0.0,-100.00,East,100,6.0,9.0,86,0.00,,,0.00,,2013-03-17 13:52:00,
2013-03-17 09:02:00,3.0,0.0,-100.00,East,100,6.0,9.0,85,0.00,,,0.00,,2013-03-17 14:02:00,
2013-03-17 09:12:00,4.0,0.0,-100.00,ESE,110,9.0,12.0,84,0.00,,,0.00,,2013-03-17 14:12:00,
2013-03-17 09:22:00,5.0,1.0,-100.00,ESE,105,12.0,17.0,82,0.00,,,0.00,,2013-03-17 14:22:00,
2013-03-17 09:32:00,6.0,1.0,-100.00,ESE,110,13.0,16.0,81,0.00,,,0.00,,2013-03-17 14:32:00,
2013-03-17 09:42:00,6.0,1.0,-100.00,ESE,105,12.0,17.0,80,0.00,,,0.00,,2013-03-17 14:42:00,
2013-03-17 09:52:00,7.0,1.0,-100.00,ESE,115,11.0,15.0,79,0.00,,,0.00,,2013-03-17 14:52:00,
2013-03-17 10:02:00,8.0,1.0,-100.00,ESE,110,12.0,16.0,78,0.00,,,0.00,,2013-03-17 15:02:00,
2013-03-17 10:12:00,8.0,3.0,-100.00,ESE,120,12.0,17.0,77,0.00,,,0.00,,2013-03-17 15:12:00,
2013-03-17 10:23:00,8.0,3.0,-100.00,ESE,120,13.0,19.0,76,0.00,,,0.00,,2013-03-17 15:23:00,
2013-03-17 10:33:00,9.0,3.0,-100.00,ESE,120,14.0,18.0,76,0.00,,,0.00,,2013-03-17 15:33:00,
2013-03-17 10:42:00,9.0,3.0,-100.00,SE,130,14.0,17.0,76,0.00,,,0.00,,2013-03-17 15:42:00,
2013-03-17 10:52:00,9.0,3.0,-100.00,SE,135,14.0,20.0,76,0.00,,,0.00,,2013-03-17 15:52:00,
2013-03-17 11:03:00,10.0,3.0,-100.00,SE,135,16.0,20.0,76,0.00,,,0.00,,2013-03-17 16:03:00,
2013-03-17 11:12:00,10.0,3.0,-100.00,SSE,150,17.0,20.0,76,0.00,,,0.00,,2013-03-17 16:12:00,
2013-03-17 11:22:00,10.0,5.0,-100.00,SE,130,13.0,19.0,76,0.00,,,0.00,,2013-03-17 16:22:00,
2013-03-17 11:33:00,11.0,5.0,-100.00,SE,125,14.0,18.0,76,0.00,,,0.00,,2013-03-17 16:33:00,
2013-03-17 11:42:00,11.0,5.0,-100.00,SE,135,14.0,18.0,76,0.00,,,0.00,,2013-03-17 16:42:00,
2013-03-17 11:52:00,11.0,5.0,-100.00,SE,130,15.0,19.0,76,0.00,,,0.00,,2013-03-17 16:52:00,
2013-03-17 12:02:00,13.0,7.0,-100.00,SE,130,14.0,18.0,76,0.00,,,0.00,,2013-03-17 17:02:00,
2013-03-17 12:12:00,13.0,7.0,-100.00,SE,140,18.0,22.0,76,0.00,,,0.00,,2013-03-17 17:12:00,
2013-03-17 12:22:00,13.0,7.0,-100.00,SE,135,12.0,23.0,76,0.00,,,0.00,,2013-03-17 17:22:00,
2013-03-17 12:33:00,14.0,9.0,-100.00,SE,130,13.0,18.0,76,0.00,,,0.00,,2013-03-17 17:33:00,
2013-03-17 12:42:00,15.0,9.0,-100.00,SE,135,13.0,18.0,75,0.00,,,0.00,,2013-03-17 17:42:00,
2013-03-17 12:52:00,15.0,9.0,-100.00,SE,135,14.0,18.0,75,0.00,,,0.00,,2013-03-17 17:52:00,
2013-03-17 13:02:00,16.0,9.0,-100.00,ESE,120,14.0,19.0,75,0.00,,,0.00,,2013-03-17 18:02:00,
2013-03-17 13:12:00,16.0,10.0,-100.00,SE,125,12.0,19.0,75,0.00,,,0.00,,2013-03-17 18:12:00,
2013-03-17 13:22:00,17.0,10.0,-100.00,SE,140,16.0,21.0,74,0.00,,,0.00,,2013-03-17 18:22:00,
2013-03-17 13:32:00,18.0,10.0,-100.00,SE,125,12.0,20.0,74,0.00,,,0.00,,2013-03-17 18:32:00,
2013-03-17 13:42:00,18.0,10.0,-100.00,SE,130,16.0,21.0,73,0.00,,,0.00,,2013-03-17 18:42:00,
2013-03-17 13:52:00,17.0,10.0,-100.00,SE,130,16.0,22.0,73,0.00,,,0.00,,2013-03-17 18:52:00,
2013-03-17 14:02:00,17.0,10.0,-100.00,SE,130,16.0,22.0,73,0.00,,,0.00,,2013-03-17 19:02:00,
2013-03-17 14:12:00,18.0,10.0,-100.00,SE,135,17.0,24.0,73,0.00,,,0.00,,2013-03-17 19:12:00,
2013-03-17 14:22:00,19.0,12.0,-100.00,SE,135,14.0,21.0,73,0.00,,,0.00,,2013-03-17 19:22:00,
2013-03-17 14:33:00,18.0,12.0,-100.00,SE,135,17.0,21.0,73,0.00,,,0.00,,2013-03-17 19:33:00,
2013-03-17 14:42:00,19.0,12.0,-100.00,SE,135,14.0,21.0,74,0.00,,,0.00,,2013-03-17 19:42:00,
2013-03-17 14:53:00,18.0,12.0,-100.00,SE,130,17.0,21.0,74,0.00,,,0.00,,2013-03-17 19:53:00,
2013-03-17 15:02:00,19.0,12.0,-100.00,SE,130,16.0,22.0,74,0.00,,,0.00,,2013-03-17 20:02:00,
2013-03-17 15:12:00,19.0,12.0,-100.00,SE,125,14.0,21.0,74,0.00,,,0.00,,2013-03-17 20:12:00,
2013-03-17 15:22:00,20.0,12.0,-100.00,SE,125,16.0,21.0,73,0.00,,,0.00,,2013-03-17 20:22:00,
2013-03-17 15:32:00,20.0,12.0,-100.00,SE,140,17.0,24.0,73,0.00,,,0.00,,2013-03-17 20:32:00,
2013-03-17 15:42:00,20.0,14.0,-100.00,SE,135,17.0,22.0,73,0.00,,,0.00,,2013-03-17 20:42:00,
2013-03-17 15:52:00,21.0,14.0,-100.00,ESE,120,15.0,20.0,73,0.00,,,0.00,,2013-03-17 20:52:00,
2013-03-17 16:02:00,21.0,14.0,-100.00,SE,135,15.0,22.0,72,0.00,,,0.00,,2013-03-17 21:02:00,
2013-03-17 16:12:00,21.0,14.0,-100.00,SE,125,17.0,22.0,72,0.00,,,0.00,,2013-03-17 21:12:00,
2013-03-17 16:22:00,21.0,14.0,-100.00,SE,125,16.0,21.0,72,0.00,,,0.00,,2013-03-17 21:22:00,
2013-03-17 16:33:00,21.0,14.0,-100.00,SE,125,16.0,22.0,72,0.00,,,0.00,,2013-03-17 21:33:00,
2013-03-17 16:42:00,21.0,14.0,-100.00,ESE,120,16.0,21.0,72,0.00,,,0.00,,2013-03-17 21:42:00,
2013-03-17 16:52:00,22.0,14.0,-100.00,SE,125,18.0,23.0,72,0.00,,,0.00,,2013-03-17 21:52:00,
2013-03-17 17:03:00,22.0,14.0,-100.00,SE,125,18.0,25.0,71,0.00,,,0.00,,2013-03-17 22:03:00,
2013-03-17 17:12:00,22.0,14.0,-100.00,SE,140,20.0,25.0,71,0.00,,,0.00,,2013-03-17 22:12:00,
2013-03-17 17:23:00,22.0,14.0,-100.00,SE,130,17.0,22.0,72,0.00,,,0.00,,2013-03-17 22:23:00,
2013-03-17 17:33:00,22.0,14.0,-100.00,SE,135,17.0,23.0,72,0.00,,,0.00,,2013-03-17 22:33:00,
2013-03-17 17:42:00,22.0,14.0,-100.00,SE,125,20.0,25.0,71,0.00,,,0.00,,2013-03-17 22:42:00,
2013-03-17 17:52:00,22.0,14.0,-100.00,ESE,120,15.0,22.0,71,0.00,,,0.00,,2013-03-17 22:52:00,
2013-03-17 18:02:00,22.0,14.0,-100.00,SE,125,16.0,28.0,71,0.00,,,0.00,,2013-03-17 23:02:00,
2013-03-17 18:12:00,22.0,14.0,-100.00,ESE,120,15.0,23.0,71,0.00,,,0.00,,2013-03-17 23:12:00,
2013-03-17 18:22:00,22.0,14.0,-100.00,ESE,120,16.0,22.0,71,0.00,,,0.00,,2013-03-17 23:22:00,
2013-03-17 18:32:00,23.0,14.0,-100.00,SE,135,15.0,20.0,71,0.00,,,0.00,,2013-03-17 23:32:00,
2013-03-17 18:42:00,23.0,16.0,-100.00,SE,130,17.0,22.0,72,0.00,,,0.00,,2013-03-17 23:42:00,
2013-03-17 18:52:00,23.0,16.0,-100.00,SE,140,14.0,20.0,73,0.00,,,0.00,,2013-03-17 23:52:00,
2013-03-17 19:03:00,23.0,16.0,-100.00,SE,130,14.0,23.0,74,0.00,,,0.00,,2013-03-18 00:03:00,
2013-03-17 19:12:00,23.0,16.0,-100.00,SE,130,17.0,23.0,74,0.00,,,0.00,,2013-03-18 00:12:00,
2013-03-17 19:22:00,23.0,16.0,-100.00,ESE,120,17.0,24.0,74,0.00,,,0.00,,2013-03-18 00:22:00,
2013-03-17 19:33:00,23.0,16.0,-100.00,ESE,120,16.0,23.0,74,0.00,,,0.00,,2013-03-18 00:33:00,
2013-03-17 19:42:00,23.0,16.0,-100.00,ESE,120,14.0,19.0,74,0.00,,,0.00,,2013-03-18 00:42:00,
2013-03-17 19:52:00,23.0,16.0,-100.00,SE,130,13.0,19.0,74,0.00,,,0.00,,2013-03-18 00:52:00,
2013-03-17 20:01:00,23.0,16.0,-100.00,SE,135,15.0,19.0,75,0.00,,,0.00,,2013-03-18 01:01:00,
2013-03-17 20:12:00,23.0,16.0,-100.00,SE,130,14.0,22.0,75,0.00,,,0.00,,2013-03-18 01:12:00,
2013-03-17 20:22:00,23.0,16.0,-100.00,SE,130,17.0,24.0,76,0.00,,,0.00,,2013-03-18 01:22:00,
2013-03-17 20:32:00,23.0,16.0,-100.00,SE,125,15.0,21.0,76,0.00,,,0.00,,2013-03-18 01:32:00,
2013-03-17 20:42:00,23.0,18.0,-100.00,SE,130,15.0,22.0,77,0.00,,,0.00,,2013-03-18 01:42:00,
2013-03-17 20:52:00,23.0,18.0,-100.00,SE,135,19.0,24.0,78,0.00,,,0.00,,2013-03-18 01:52:00,
2013-03-17 21:02:00,23.0,18.0,-100.00,SE,130,17.0,22.0,78,0.00,,,0.00,,2013-03-18 02:02:00,
2013-03-17 21:12:00,23.0,18.0,-100.00,SE,135,14.0,23.0,78,0.00,,,0.00,,2013-03-18 02:12:00,
2013-03-17 21:22:00,23.0,18.0,-100.00,SE,135,17.0,22.0,79,0.00,,,0.00,,2013-03-18 02:22:00,
2013-03-17 21:32:00,23.0,18.0,-100.00,SE,130,18.0,24.0,79,0.00,,,0.00,,2013-03-18 02:32:00,
2013-03-17 21:42:00,24.0,18.0,-100.00,SE,140,18.0,23.0,80,0.00,,,0.00,,2013-03-18 02:42:00,
2013-03-17 21:52:00,24.0,18.0,-100.00,SE,140,17.0,24.0,80,0.00,,,0.00,,2013-03-18 02:52:00,
2013-03-17 22:02:00,24.0,19.0,-100.00,SE,130,19.0,26.0,81,0.00,,,0.00,,2013-03-18 03:02:00,
2013-03-17 22:11:00,24.0,19.0,-100.00,SE,135,21.0,29.0,81,0.00,,,0.00,,2013-03-18 03:11:00,
2013-03-17 22:22:00,24.0,19.0,-100.00,SE,135,20.0,27.0,82,0.00,,,0.00,,2013-03-18 03:22:00,
2013-03-17 22:33:00,24.0,19.0,-100.00,SE,140,21.0,29.0,82,0.00,,,0.00,,2013-03-18 03:33:00,
2013-03-17 22:42:00,24.0,19.0,-100.00,SE,130,21.0,27.0,82,0.00,,,0.00,,2013-03-18 03:42:00,
2013-03-17 22:52:00,25.0,21.0,-100.00,SE,140,21.0,27.0,83,0.00,,,0.00,,2013-03-18 03:52:00,
2013-03-17 23:03:00,25.0,19.0,-100.00,SE,145,22.0,27.0,83,0.00,,,0.00,,2013-03-18 04:03:00,
2013-03-17 23:13:00,25.0,21.0,-100.00,SE,135,22.0,27.0,84,0.00,,,0.00,,2013-03-18 04:13:00,
2013-03-17 23:22:00,24.0,21.0,-100.00,SE,130,21.0,30.0,87,0.00,,,0.00,,2013-03-18 04:22:00,
2013-03-17 23:33:00,24.0,21.0,-100.00,SE,125,20.0,29.0,90,0.00,,,0.00,,2013-03-18 04:33:00,
2013-03-17 23:42:00,24.0,21.0,-100.00,SE,130,21.0,28.0,91,0.00,,,0.00,,2013-03-18 04:42:00,
2013-03-17 23:52:00,24.0,21.0,-100.00,SE,140,22.0,31.0,93,0.00,,,0.00,,2013-03-18 04:52:00,